LGR888 CYIO-CYAB

Flight info

Callsign LGR888
Flight time 1h 18m
Altitude 6000
Route SATAX
Aircraft R66/L-SFG/C

Departure

Time 2026-05-01 07:28
Airport Pond Inlet Airport (CYIO)

Arrival

Time 2026-05-01 08:47
Airport Arctic Bay Airport (CYAB)
Time Latitude Longitude Altitude Speed Heading
2026-05-01 07:23 72.69551 -77.95773 183 ft 0 kts 26°
2026-05-01 07:25 72.69548 -77.95789 187 ft 5 kts 15°
2026-05-01 07:26 72.69560 -77.95754 190 ft 1 kts 181°
2026-05-01 07:26 72.69531 -77.95766 193 ft 6 kts 207°
2026-05-01 07:26 72.69452 -77.95998 205 ft 29 kts 237°
2026-05-01 07:26 72.69250 -77.96589 275 ft 53 kts 212°
2026-05-01 07:27 72.68870 -77.97201 462 ft 68 kts 202°
2026-05-01 07:27 72.68372 -77.97832 437 ft 92 kts 198°
2026-05-01 07:27 72.67724 -77.98598 406 ft 94 kts 195°
2026-05-01 07:27 72.67103 -77.99166 485 ft 94 kts 191°
2026-05-01 07:28 72.66477 -77.99688 569 ft 93 kts 202°
2026-05-01 07:28 72.66187 -78.00848 1051 ft 46 kts 262°
2026-05-01 07:28 72.66101 -78.02155 1213 ft 69 kts 240°
2026-05-01 07:28 72.65708 -78.02823 1405 ft 72 kts 197°
2026-05-01 07:29 72.65298 -78.03927 1606 ft 83 kts 214°
2026-05-01 07:29 72.64719 -78.04363 1759 ft 91 kts 183°
2026-05-01 07:29 72.64069 -78.04641 1914 ft 96 kts 188°
2026-05-01 07:29 72.63409 -78.05147 2056 ft 99 kts 193°
2026-05-01 07:30 72.62762 -78.05963 2182 ft 102 kts 205°
2026-05-01 07:30 72.62293 -78.07748 2263 ft 105 kts 245°
2026-05-01 07:30 72.62273 -78.10156 2338 ft 106 kts 285°
2026-05-01 07:30 72.62664 -78.12191 2436 ft 104 kts 308°
2026-05-01 07:31 72.63117 -78.14060 2567 ft 102 kts 308°
2026-05-01 07:31 72.64446 -78.19498 2964 ft 100 kts 309°
2026-05-01 07:32 72.65325 -78.23090 3222 ft 100 kts 309°
2026-05-01 07:32 72.65765 -78.24885 3349 ft 100 kts 309°
2026-05-01 07:33 72.66653 -78.28520 3597 ft 100 kts 309°
2026-05-01 07:33 72.67094 -78.30325 3664 ft 104 kts 309°
2026-05-01 07:33 72.68050 -78.34241 3651 ft 113 kts 308°
2026-05-01 07:34 72.68550 -78.36298 3603 ft 114 kts 308°
2026-05-01 07:34 72.69571 -78.40497 3406 ft 121 kts 308°
2026-05-01 07:34 72.70093 -78.42636 3390 ft 115 kts 308°
2026-05-01 07:35 72.70570 -78.44579 3565 ft 101 kts 310°
2026-05-01 07:35 72.71033 -78.46426 3596 ft 106 kts 310°
2026-05-01 07:35 72.71516 -78.48358 3587 ft 111 kts 309°
2026-05-01 07:35 72.72025 -78.50372 3582 ft 112 kts 310°
2026-05-01 07:36 72.72398 -78.52636 3556 ft 116 kts 282°
2026-05-01 07:36 72.72556 -78.55298 3533 ft 116 kts 280°
2026-05-01 07:36 72.72707 -78.57937 3508 ft 116 kts 280°
2026-05-01 07:36 72.72859 -78.60583 3503 ft 115 kts 280°
2026-05-01 07:37 72.73167 -78.65868 3475 ft 115 kts 279°
2026-05-01 07:37 72.73322 -78.68502 3473 ft 114 kts 279°
2026-05-01 07:37 72.73475 -78.71134 3461 ft 115 kts 279°
2026-05-01 07:38 72.73605 -78.73318 3884 ft 64 kts 283°
2026-05-01 07:38 72.73712 -78.75068 3881 ft 93 kts 281°
2026-05-01 07:38 72.73960 -78.79257 4237 ft 56 kts 285°
2026-05-01 07:39 72.74067 -78.80958 4159 ft 89 kts 279°
2026-05-01 07:39 72.74189 -78.83122 4088 ft 99 kts 278°
2026-05-01 07:39 72.74449 -78.87820 3929 ft 104 kts 278°
2026-05-01 07:40 72.74587 -78.90223 3869 ft 104 kts 276°
2026-05-01 07:40 72.74714 -78.92434 4092 ft 72 kts 281°
2026-05-01 07:40 72.74828 -78.94355 3996 ft 93 kts 278°
2026-05-01 07:40 72.74950 -78.96567 3961 ft 98 kts 278°
2026-05-01 07:41 72.75082 -78.98951 3805 ft 108 kts 278°
2026-05-01 07:41 72.75228 -79.01569 3533 ft 116 kts 278°
2026-05-01 07:41 72.75504 -79.06347 3538 ft 104 kts 279°
2026-05-01 07:42 72.75643 -79.08753 3470 ft 105 kts 279°
2026-05-01 07:42 72.75781 -79.11179 3408 ft 105 kts 279°
2026-05-01 07:42 72.75921 -79.13619 3342 ft 106 kts 279°
2026-05-01 07:42 72.76056 -79.15971 3433 ft 83 kts 282°
2026-05-01 07:43 72.76142 -79.17455 3685 ft 77 kts 282°
2026-05-01 07:43 72.76260 -79.19422 3678 ft 87 kts 280°
2026-05-01 07:43 72.76499 -79.21451 4366 ft 57 kts 327°
2026-05-01 07:44 72.76677 -79.24915 4622 ft 95 kts 254°
2026-05-01 07:44 72.76785 -79.29544 4735 ft 103 kts 282°
2026-05-01 07:45 72.76933 -79.31912 4795 ft 105 kts 282°
2026-05-01 07:45 72.77080 -79.34335 4849 ft 105 kts 282°
2026-05-01 07:45 72.77222 -79.36727 4891 ft 105 kts 281°
2026-05-01 07:45 72.77364 -79.39165 4943 ft 105 kts 281°
2026-05-01 07:46 72.77504 -79.41587 4994 ft 105 kts 281°
2026-05-01 07:46 72.77641 -79.44009 5048 ft 105 kts 281°
2026-05-01 07:46 72.77911 -79.48807 5141 ft 105 kts 281°
2026-05-01 07:47 72.78046 -79.51222 5187 ft 105 kts 281°
2026-05-01 07:47 72.78180 -79.53649 5240 ft 104 kts 281°
2026-05-01 07:47 72.78313 -79.56062 5277 ft 104 kts 281°
2026-05-01 07:47 72.78444 -79.58442 5321 ft 104 kts 281°
2026-05-01 07:48 72.78705 -79.63233 5416 ft 104 kts 281°
2026-05-01 07:48 72.78837 -79.65663 5447 ft 104 kts 280°
2026-05-01 07:48 72.78966 -79.68042 5499 ft 104 kts 280°
2026-05-01 07:49 72.79096 -79.70441 5540 ft 104 kts 281°
2026-05-01 07:49 72.79357 -79.75255 5622 ft 104 kts 280°
2026-05-01 07:49 72.79485 -79.77651 5658 ft 104 kts 280°
2026-05-01 07:50 72.79614 -79.80045 5709 ft 103 kts 280°
2026-05-01 07:50 72.79868 -79.84808 5781 ft 103 kts 280°
2026-05-01 07:50 72.79993 -79.87197 5840 ft 103 kts 280°
2026-05-01 07:51 72.80118 -79.89553 5876 ft 103 kts 281°
2026-05-01 07:51 72.80244 -79.91941 5899 ft 103 kts 281°
2026-05-01 07:51 72.80371 -79.94350 5952 ft 103 kts 281°
2026-05-01 07:52 72.80626 -79.99179 5967 ft 107 kts 280°
2026-05-01 07:52 72.80741 -80.01697 5970 ft 108 kts 277°
2026-05-01 07:52 72.80875 -80.04153 5926 ft 108 kts 293°
2026-05-01 07:53 72.81175 -80.09036 5957 ft 107 kts 279°
2026-05-01 07:53 72.81296 -80.11530 5959 ft 106 kts 279°
2026-05-01 07:53 72.81413 -80.13937 5975 ft 105 kts 279°
2026-05-01 07:53 72.81535 -80.16390 5982 ft 105 kts 280°
2026-05-01 07:54 72.81776 -80.21217 6014 ft 105 kts 280°
2026-05-01 07:55 72.82146 -80.28536 6021 ft 106 kts 281°
2026-05-01 07:55 72.82394 -80.33452 6018 ft 106 kts 281°
2026-05-01 07:56 72.83571 -80.39298 6017 ft 103 kts 321°
2026-05-01 07:56 72.84699 -80.42247 6028 ft 103 kts 321°
2026-05-01 07:57 72.85281 -80.43654 6022 ft 103 kts 327°
2026-05-01 07:57 72.86523 -80.45990 6028 ft 102 kts 331°
2026-05-01 07:58 72.87792 -80.48195 6028 ft 102 kts 332°
2026-05-01 07:58 72.89049 -80.50394 6028 ft 103 kts 332°
2026-05-01 07:59 72.90329 -80.52626 6029 ft 103 kts 332°
2026-05-01 07:59 72.91634 -80.54617 6030 ft 102 kts 334°
2026-05-01 08:00 72.93669 -80.60633 6028 ft 106 kts 278°
2026-05-01 08:01 72.93919 -80.68155 6016 ft 106 kts 278°
2026-05-01 08:01 72.94002 -80.70667 5996 ft 107 kts 278°
2026-05-01 08:01 72.94085 -80.73184 6007 ft 107 kts 278°
2026-05-01 08:02 72.94257 -80.78272 6003 ft 108 kts 278°
2026-05-01 08:02 72.94346 -80.80824 6000 ft 109 kts 278°
2026-05-01 08:03 72.94518 -80.85881 6012 ft 108 kts 278°
2026-05-01 08:03 72.94601 -80.88444 6004 ft 109 kts 278°
2026-05-01 08:03 72.94765 -80.93533 5997 ft 107 kts 278°
2026-05-01 08:04 72.94926 -80.98607 5980 ft 107 kts 278°
2026-05-01 08:04 72.95081 -81.03692 6006 ft 109 kts 278°
2026-05-01 08:05 72.95245 -81.08830 5964 ft 108 kts 278°
2026-05-01 08:05 72.95335 -81.11361 5959 ft 107 kts 283°
2026-05-01 08:05 72.95325 -81.13929 5980 ft 110 kts 269°
2026-05-01 08:06 72.95232 -81.19162 5946 ft 111 kts 269°
2026-05-01 08:06 72.95555 -81.24075 5947 ft 107 kts 280°
2026-05-01 08:07 72.95447 -81.29272 5902 ft 110 kts 268°
2026-05-01 08:07 72.95331 -81.34499 5896 ft 111 kts 269°
2026-05-01 08:08 72.95278 -81.37099 5881 ft 110 kts 269°
2026-05-01 08:08 72.95179 -81.42295 5856 ft 109 kts 270°
2026-05-01 08:09 72.95085 -81.47478 5830 ft 110 kts 270°
2026-05-01 08:09 72.95039 -81.50061 5819 ft 109 kts 270°
2026-05-01 08:09 72.94993 -81.52639 5836 ft 109 kts 270°
2026-05-01 08:10 72.94900 -81.57838 5841 ft 110 kts 270°
2026-05-01 08:10 72.94807 -81.63007 5854 ft 109 kts 270°
2026-05-01 08:11 72.94713 -81.68229 5860 ft 111 kts 270°
2026-05-01 08:11 72.94616 -81.73526 5865 ft 112 kts 269°
2026-05-01 08:12 72.94518 -81.78786 5881 ft 111 kts 269°
2026-05-01 08:12 72.94469 -81.81410 5875 ft 110 kts 269°
2026-05-01 08:12 72.94371 -81.86597 5886 ft 110 kts 269°
2026-05-01 08:13 72.94321 -81.89225 5885 ft 111 kts 269°
2026-05-01 08:13 72.94270 -81.91801 5885 ft 110 kts 270°
2026-05-01 08:13 72.94169 -81.97062 5894 ft 113 kts 270°
2026-05-01 08:14 72.94119 -81.99722 5889 ft 114 kts 270°
2026-05-01 08:14 72.94067 -82.02435 5889 ft 115 kts 270°
2026-05-01 08:14 72.94015 -82.05132 5864 ft 116 kts 270°
2026-05-01 08:14 72.93961 -82.07848 5851 ft 115 kts 270°
2026-05-01 08:15 72.93906 -82.10569 5838 ft 113 kts 270°
2026-05-01 08:15 72.93798 -82.15945 5823 ft 116 kts 270°
2026-05-01 08:15 72.93741 -82.18674 5799 ft 115 kts 270°
2026-05-01 08:16 72.93680 -82.21356 5797 ft 114 kts 270°
2026-05-01 08:16 72.93620 -82.24052 5791 ft 113 kts 270°
2026-05-01 08:16 72.93562 -82.26707 5789 ft 113 kts 270°
2026-05-01 08:16 72.93503 -82.29391 5819 ft 113 kts 270°
2026-05-01 08:17 72.93445 -82.32077 5824 ft 115 kts 270°
2026-05-01 08:17 72.93385 -82.34814 5783 ft 118 kts 270°
2026-05-01 08:17 72.93323 -82.37633 5719 ft 120 kts 269°
2026-05-01 08:17 72.93262 -82.40430 5659 ft 120 kts 269°
2026-05-01 08:18 72.93198 -82.43293 5611 ft 121 kts 269°
2026-05-01 08:18 72.93071 -82.49026 5479 ft 121 kts 269°
2026-05-01 08:19 72.92944 -82.54742 5298 ft 121 kts 270°
2026-05-01 08:19 72.92881 -82.57584 5233 ft 121 kts 269°
2026-05-01 08:19 72.92818 -82.60413 5169 ft 121 kts 268°
2026-05-01 08:19 72.92766 -82.63258 5072 ft 121 kts 274°
2026-05-01 08:20 72.92825 -82.66097 4979 ft 121 kts 266°
2026-05-01 08:20 72.92622 -82.68847 4932 ft 123 kts 242°
2026-05-01 08:20 72.92143 -82.71218 4855 ft 123 kts 251°
2026-05-01 08:20 72.92097 -82.74047 4778 ft 118 kts 275°
2026-05-01 08:21 72.92136 -82.76829 4748 ft 117 kts 275°
2026-05-01 08:21 72.92152 -82.79600 4705 ft 118 kts 272°
2026-05-01 08:21 72.92147 -82.82389 4686 ft 118 kts 271°
2026-05-01 08:21 72.92126 -82.85194 4660 ft 119 kts 270°
2026-05-01 08:22 72.92091 -82.88023 4621 ft 120 kts 269°
2026-05-01 08:22 72.92046 -82.90848 4577 ft 120 kts 268°
2026-05-01 08:22 72.91995 -82.93690 4521 ft 120 kts 268°
2026-05-01 08:22 72.91938 -82.96499 4460 ft 120 kts 268°
2026-05-01 08:23 72.91879 -82.99319 4406 ft 119 kts 268°
2026-05-01 08:23 72.91817 -83.02136 4398 ft 119 kts 268°
2026-05-01 08:23 72.91752 -83.04910 4409 ft 117 kts 268°
2026-05-01 08:23 72.91688 -83.07643 4423 ft 117 kts 268°
2026-05-01 08:24 72.91621 -83.10396 4419 ft 113 kts 267°
2026-05-01 08:24 72.91555 -83.12987 4425 ft 109 kts 267°
2026-05-01 08:24 72.91489 -83.15558 4432 ft 107 kts 268°
2026-05-01 08:24 72.91426 -83.18073 4442 ft 107 kts 268°
2026-05-01 08:25 72.91364 -83.20564 4446 ft 107 kts 268°
2026-05-01 08:25 72.91322 -83.22264 4453 ft 106 kts 268°
2026-05-01 08:25 72.91235 -83.25623 4482 ft 108 kts 268°
2026-05-01 08:25 72.91170 -83.28164 4466 ft 108 kts 268°
2026-05-01 08:26 72.91103 -83.30682 4467 ft 107 kts 268°
2026-05-01 08:26 72.91039 -83.33174 4471 ft 106 kts 268°
2026-05-01 08:26 72.90974 -83.35669 4471 ft 106 kts 268°
2026-05-01 08:26 72.90908 -83.38181 4462 ft 107 kts 268°
2026-05-01 08:27 72.90843 -83.40682 4456 ft 106 kts 268°
2026-05-01 08:27 72.90778 -83.43165 4458 ft 105 kts 268°
2026-05-01 08:27 72.90717 -83.45654 4446 ft 106 kts 268°
2026-05-01 08:27 72.90653 -83.48139 4449 ft 106 kts 268°
2026-05-01 08:28 72.90588 -83.50594 4456 ft 105 kts 269°
2026-05-01 08:28 72.90524 -83.53085 4482 ft 106 kts 268°
2026-05-01 08:28 72.90457 -83.55587 4500 ft 106 kts 269°
2026-05-01 08:28 72.90390 -83.58093 4519 ft 108 kts 269°
2026-05-01 08:29 72.90321 -83.60616 4535 ft 107 kts 269°
2026-05-01 08:29 72.90250 -83.63136 4554 ft 107 kts 269°
2026-05-01 08:29 72.90181 -83.65656 4572 ft 106 kts 268°
2026-05-01 08:29 72.90112 -83.68165 4596 ft 107 kts 268°
2026-05-01 08:30 72.90041 -83.70705 4607 ft 107 kts 268°
2026-05-01 08:30 72.89970 -83.73227 4624 ft 107 kts 268°
2026-05-01 08:30 72.89899 -83.75730 4636 ft 106 kts 268°
2026-05-01 08:30 72.89829 -83.78200 4629 ft 106 kts 268°
2026-05-01 08:31 72.89758 -83.80688 4633 ft 106 kts 268°
2026-05-01 08:31 72.89687 -83.83177 4629 ft 106 kts 268°
2026-05-01 08:31 72.89616 -83.85670 4630 ft 106 kts 268°
2026-05-01 08:31 72.89543 -83.88168 4627 ft 106 kts 268°
2026-05-01 08:32 72.89471 -83.90674 4622 ft 106 kts 268°
2026-05-01 08:32 72.89399 -83.93166 4636 ft 107 kts 269°
2026-05-01 08:32 72.89327 -83.95699 4627 ft 110 kts 269°
2026-05-01 08:32 72.89251 -83.98322 4622 ft 111 kts 269°
2026-05-01 08:33 72.89175 -84.00893 4621 ft 109 kts 268°
2026-05-01 08:33 72.89099 -84.03450 4612 ft 110 kts 269°
2026-05-01 08:33 72.89022 -84.06050 4600 ft 109 kts 269°
2026-05-01 08:33 72.88947 -84.08585 4601 ft 109 kts 269°
2026-05-01 08:34 72.88869 -84.11167 4592 ft 109 kts 269°
2026-05-01 08:34 72.88792 -84.13708 4592 ft 110 kts 269°
2026-05-01 08:34 72.88715 -84.16283 4583 ft 110 kts 269°
2026-05-01 08:34 72.88635 -84.18883 4575 ft 110 kts 269°
2026-05-01 08:35 72.88557 -84.21463 4563 ft 110 kts 269°
2026-05-01 08:35 72.88479 -84.24038 4558 ft 110 kts 269°
2026-05-01 08:35 72.88399 -84.26625 4563 ft 111 kts 269°
2026-05-01 08:35 72.88111 -84.29063 4562 ft 118 kts 238°
2026-05-01 08:36 72.87590 -84.31234 4548 ft 120 kts 234°
2026-05-01 08:36 72.87042 -84.33394 4538 ft 120 kts 233°
2026-05-01 08:36 72.86500 -84.35500 4528 ft 120 kts 233°
2026-05-01 08:36 72.85948 -84.37619 4519 ft 119 kts 233°
2026-05-01 08:37 72.85404 -84.39706 4512 ft 119 kts 233°
2026-05-01 08:37 72.84849 -84.41830 4504 ft 119 kts 233°
2026-05-01 08:37 72.84302 -84.43916 4497 ft 119 kts 233°
2026-05-01 08:37 72.83748 -84.46028 4491 ft 119 kts 233°
2026-05-01 08:38 72.83342 -84.48340 4451 ft 113 kts 261°
2026-05-01 08:38 72.83435 -84.50922 4296 ft 111 kts 297°
2026-05-01 08:38 72.83939 -84.52830 4166 ft 109 kts 317°
2026-05-01 08:38 72.84500 -84.54570 4094 ft 109 kts 318°
2026-05-01 08:39 72.85057 -84.56278 4010 ft 110 kts 318°
2026-05-01 08:39 72.85620 -84.58007 3890 ft 106 kts 316°
2026-05-01 08:39 72.86153 -84.59650 3814 ft 102 kts 317°
2026-05-01 08:39 72.86674 -84.61239 3712 ft 100 kts 317°
2026-05-01 08:40 72.87696 -84.64349 3520 ft 96 kts 317°
2026-05-01 08:40 72.88185 -84.65854 3458 ft 95 kts 315°
2026-05-01 08:40 72.88676 -84.67352 3394 ft 94 kts 316°
2026-05-01 08:41 72.89166 -84.68835 3331 ft 95 kts 316°
2026-05-01 08:41 72.89657 -84.70311 3269 ft 95 kts 316°
2026-05-01 08:41 72.90153 -84.71807 3206 ft 96 kts 316°
2026-05-01 08:41 72.90652 -84.73319 3146 ft 96 kts 316°
2026-05-01 08:42 72.91147 -84.74826 3079 ft 96 kts 316°
2026-05-01 08:42 72.91649 -84.76354 3018 ft 97 kts 316°
2026-05-01 08:42 72.92147 -84.77879 2958 ft 98 kts 316°
2026-05-01 08:42 72.92654 -84.79431 2896 ft 98 kts 315°
2026-05-01 08:43 72.93156 -84.80973 2812 ft 99 kts 315°
2026-05-01 08:43 72.93670 -84.82556 2665 ft 98 kts 314°
2026-05-01 08:43 72.94167 -84.84095 2516 ft 94 kts 312°
2026-05-01 08:43 72.94630 -84.85532 2384 ft 88 kts 312°
2026-05-01 08:44 72.95077 -84.86871 2277 ft 84 kts 318°
2026-05-01 08:44 72.95570 -84.88026 2012 ft 95 kts 315°
2026-05-01 08:44 72.96089 -84.89377 1754 ft 91 kts 314°
2026-05-01 08:44 72.96563 -84.90565 1687 ft 76 kts 317°
2026-05-01 08:45 72.96977 -84.91676 1556 ft 75 kts 313°
2026-05-01 08:45 72.97369 -84.92729 1501 ft 67 kts 315°
2026-05-01 08:45 72.97733 -84.93681 1430 ft 67 kts 315°
2026-05-01 08:45 72.98113 -84.94714 1305 ft 72 kts 315°
2026-05-01 08:46 72.98502 -84.95913 1119 ft 78 kts 307°
2026-05-01 08:46 72.98873 -84.97211 948 ft 78 kts 305°
2026-05-01 08:46 72.99246 -84.98730 633 ft 87 kts 300°
2026-05-01 08:46 72.99607 -85.00352 355 ft 85 kts 301°
2026-05-01 08:47 72.99961 -85.01756 217 ft 68 kts 300°
2026-05-01 08:47 73.00186 -85.02643 250 ft 27 kts 300°
2026-05-01 08:47 73.00246 -85.02723 258 ft 3 kts 294°
2026-05-01 08:47 73.00243 -85.02863 173 ft 12 kts 333°
2026-05-01 08:48 73.00233 -85.03181 131 ft 9 kts 49°
2026-05-01 08:48 73.00275 -85.03226 102 ft 6 kts 51°
2026-05-01 08:48 73.00314 -85.03205 88 ft 5 kts 57°
2026-05-01 08:48 73.00335 -85.03075 92 ft 7 kts 68°
2026-05-01 08:49 73.00342 -85.02942 77 ft 6 kts 66°
2026-05-01 08:49 73.00352 -85.02830 79 ft 4 kts 55°
2026-05-01 08:49 73.00365 -85.02755 75 ft 5 kts 39°
2026-05-01 08:49 73.00375 -85.02675 72 ft 3 kts 42°
2026-05-01 08:50 73.00385 -85.02635 73 ft 6 kts 30°
2026-05-01 08:50 73.00390 -85.02612 73 ft 1 kts 21°
2026-05-01 08:50 73.00400 -85.02597 71 ft 3 kts 25°
2026-05-01 08:50 73.00402 -85.02592 70 ft 0 kts 22°